#timestamp,LO_Frequency,Hit 
1501606815.3,286046981.7,N
1501606835.1,286046983.0,N
1501606855.8,286046980.5,N
1501606875.7,286046981.2,N
1501606895.5,286046980.1,N
1501606915.3,286046976.1,N
1501606935.2,286046978.8,N
1501606955.0,286046977.7,N
1501606955.9,286046977.7,N
1501606975.7,286046980.3,N
1501606995.6,286046980.2,N
1501607015.4,286046979.2,N
1501607035.2,286046980.2,N
1501607055.1,286046976.2,N
1501607056.0,286046976.2,N
1501607075.8,286046976.7,N
1501607095.6,286046975.2,N
1501607115.5,286046974.7,N
1501607135.3,286046978.8,N
1501607155.1,286046974.4,N
1501607175.9,286046975.0,N
1501607195.7,286046974.8,N
1501607215.5,286046972.9,N
1501607235.4,286046974.4,N
1501607255.2,286046977.1,N
1501607275.0,286046974.6,N
1501607275.9,286046974.6,N
1501607295.7,286046977.2,N
1501607315.6,286046976.0,N
1501607335.4,286046978.0,N
1501607355.2,286046978.7,N
1501607375.1,286046979.2,N
1501607376.0,286046979.2,N
1501607395.8,286046980.1,N
1501607415.6,286046980.1,N
1501607435.5,286046980.0,N
1501607455.3,286046978.7,N
1501607475.1,286046976.8,N
1501607495.9,286046974.6,N
1501607515.7,286046974.1,N
1501607535.5,286046975.1,N
1501607555.4,286046975.1,N
1501607575.2,286046974.4,N
1501607595.0,286046974.6,N
1501607595.9,286046974.6,N
1501607615.8,286046976.1,N
1501607635.6,286046977.9,N
1501607655.4,286046978.2,N
1501607675.3,286046977.6,N
1501607695.1,286046977.7,N
1501607696.0,286046977.7,N
1501607715.8,286046982.0,N
1501607735.7,286046981.3,N
1501607755.5,286046981.3,N
1501607775.3,286046980.3,N
1501607795.1,286046979.6,N
1501607815.9,286046978.2,N
1501607835.7,286046977.2,N
1501607855.5,286046978.7,N
1501607875.4,286046977.4,N
1501607895.2,286046982.0,N
1501607915.0,286046983.0,N
1501607915.9,286046983.0,N
1501607935.8,286046981.1,N
1501607955.6,286046982.4,N
1501607975.4,286046984.2,N
1501607995.3,286046982.6,N
1501608015.1,286046981.4,N
1501608016.0,286046981.4,N
1501608035.8,286046979.1,N
1501608055.7,286046981.6,N
1501608075.5,286046981.4,N
1501608095.3,286046983.6,N
1501608115.1,286046981.6,N
1501608135.9,286046979.5,N
1501608155.7,286046979.6,N
1501608175.5,286046980.2,N
1501608195.4,286046978.0,N
1501608215.2,286046978.2,N
1501608235.0,286046978.2,N
1501608235.9,286046978.2,N
1501608255.8,286046974.2,N
1501608275.6,286046977.0,N
1501608295.4,286046975.7,N
1501608315.3,286046974.1,N
1501608335.1,286046978.7,N
1501608336.0,286046978.7,N
1501608355.8,286046978.5,N
1501608375.7,286046978.6,N
1501608395.5,286046977.8,N
1501608415.3,286046977.7,N
1501608435.2,286046977.8,N
1501608455.9,286046979.2,N
1501608475.7,286046977.8,N
1501608495.6,286046978.0,N
1501608515.4,286046976.5,N
1501608535.2,286046976.8,N
1501608555.1,286046974.4,N
1501608556.0,286046974.4,N
1501608575.8,286046975.8,N
1501608595.6,286046976.1,N
1501608615.5,286046976.2,N
1501608635.3,286046977.0,N
1501608655.1,286046977.2,N
1501608675.8,286046974.1,N
1501608695.7,286046977.1,N
1501608715.5,286046974.2,N
1501608735.3,286046978.3,N
1501608755.2,286046975.7,N
1501608775.9,286046974.6,N
1501608795.7,286046974.2,N
1501608815.6,286046976.8,N
1501608835.4,286046976.9,N
1501608855.2,286046974.9,N
1501608875.1,286046977.1,N
1501608876.0,286046977.1,N
1501608895.8,286046976.7,N
1501608915.6,286046975.3,N
1501608935.5,286046974.6,N
1501608955.3,286046975.5,N
1501608975.1,286046973.1,N
1501608995.8,286046975.5,N
1501609015.7,286046975.3,N
1501609035.5,286046972.5,N
1501609055.3,286046974.2,N
1501609075.2,286046975.0,N
1501609095.0,286046974.5,N
1501609095.9,286046974.5,N
1501609115.7,286046974.3,N
1501609135.6,286046974.8,N
1501609155.4,286046974.2,N
1501609175.2,286046977.0,N
1501609195.1,286046974.4,N
1501609196.0,286046974.4,N
1501609215.8,286046975.1,N
1501609235.6,286046974.9,N
1501609255.5,286046976.7,N
1501609275.3,286046976.3,N
1501609295.1,286046976.2,N
1501609315.9,286046978.5,N
1501609335.7,286046978.1,N
1501609355.5,286046977.4,N
1501609375.3,286046977.4,N
1501609395.2,286046977.6,N
1501609415.0,286046976.3,N
1501609415.9,286046976.3,N
1501609435.7,286046974.6,N
1501609455.6,286046974.1,N
1501609475.4,286046978.3,N
1501609495.2,286046976.1,N
1501609515.1,286046976.4,N
1501609516.0,286046976.4,N
1501609535.8,286046975.7,N
1501609555.6,286046974.2,N
1501609575.5,286046976.3,N
1501609595.3,286046976.5,N
1501609615.1,286046977.0,N
1501609635.9,286046979.6,N
1501609655.7,286046979.6,N
1501609675.5,286046979.3,N
1501609695.4,286046977.6,N
1501609715.2,286046978.4,N
1501609735.0,286046975.8,N
1501609735.9,286046975.8,N
1501609755.8,286046978.4,N
1501609775.6,286046974.6,N
1501609795.4,286046975.3,N
1501609815.2,286046974.2,N
1501609835.1,286046974.1,N
1501609836.0,286046974.1,N
1501609855.8,286046977.2,N
1501609875.6,286046974.3,N
1501609895.5,286046974.2,N
1501609915.3,286046974.8,N
1501609935.1,286046975.3,N
1501609955.9,286046975.3,N
1501609975.7,286046974.4,N
1501609995.5,286046974.5,N
1501610015.4,286046976.6,N
1501610035.2,286046976.5,N
1501610055.0,286046975.8,N
1501610055.9,286046975.8,N
1501610075.8,286046974.2,N
1501610095.6,286046974.4,N
1501610115.4,286046974.3,N
1501610135.3,286046974.5,N
1501610155.1,286046976.0,N
1501610156.0,286046976.0,N
1501610175.8,286046976.7,N
1501610195.7,286046977.0,N
1501610215.5,286046976.2,N
1501610235.3,286046976.0,N
1501610255.1,286046978.4,N
1501610275.9,286046977.6,N
1501610295.7,286046980.4,N
1501610315.5,286046978.5,N
1501610335.4,286046978.6,N
1501610355.2,286046977.9,N
1501610375.0,286046977.4,N
1501610375.9,286046977.4,N
1501610395.8,286046979.6,N
